SONATE
1 44400U 19038Q   25141.56755208  .00194500  00000-0  80476-3 0  9991
2 44400  97.6922 166.1064 0001932 257.7484 102.3569 15.85333455326554
Taurus 1
1 44530U 19059C   25141.88511690  .00005399  00000-0  10022-2 0  9994
2 44530  98.6047 280.3964 0010668  98.5980 261.6431 14.65615911301202
Duchifat 3
1 44854U 19089C   25141.63434709  .00041300  00000-0  85074-3 0  9996
2 44854  36.9427 115.5098 0002759 206.6304 153.4311 15.44961925300019
TO-108
1 44881U 19093C   25141.83520468  .00000791  00000-0  97597-4 0  9994
2 44881  97.7926 217.8765 0012418 295.7021  64.2911 14.85562473293298
FloripaSat 1
1 44885U 19093G   25141.78255710  .00004717  00000-0  40148-3 0  9998
2 44885  97.8146 229.3465 0008879 262.9217  97.0996 14.98262900293935
RS-44
1 44909U 19096E   25141.79080308  .00000010  00000-0 -20002-5 0  9990
2 44909  82.5224 239.7594 0216959 339.8025  19.4588 12.79740585252330
UPMSat 2
1 46276U 20061E   25141.47000252  .00063179  00000-0  61189-3 0  9991
2 46276  97.2446 215.2458 0001665 163.1886 196.9430 15.66200917262477
SALSAT
1 46495U 20068K   25141.49190830  .00006527  00000-0  28481-3 0  9997
2 46495  97.8595 118.6440 0010048 221.5510 138.4962 15.22478734255622
CubeSX-Sirius-HSE
1 47951U 21022V   25141.59561282  .00462067  84379-4  14199-2 0  9990
2 47951  97.4100  54.3387 0005544 113.2369 246.9489 15.91794826230832
CubeSX-HSE
1 47952U 21022W   25141.66972810  .00452214  81186-4  13605-2 0  9999
2 47952  97.4121  54.6871 0004892 117.0962 243.0811 15.92212362230864
GRBAlpha
1 47959U 21022AD  25141.60255991  .00424504  69683-4  14144-2 0  9992
2 47959  97.4114  54.6753 0005026 110.8251 249.3561 15.90208555229679
TUBIN
1 48900U 21059X   25141.79774394  .00039024  00000-0  50365-3 0  9991
2 48900  97.6746 309.5241 0002476 288.2368  71.8618 15.58889578217119
LEDSAT
1 49069U 21073D   25141.76220024  .00062938  00000-0  82589-3 0  9990
2 49069  97.3894 222.5491 0011660 148.0167 212.1798 15.58261658208508
CUTE
1 49263U 21088D   25141.46510994  .00014173  00000-0  28954-3 0  9991
2 49263  97.4508 217.1760 0006692 314.9715  45.0991 15.46253858201475
TeikyoSat 4
1 49396U 21102B   25141.56855774  .00001629  00000-0  11096-3 0  9995
2 49396  97.4120 180.6831 0012209 190.5003 169.5972 15.07561350193684
Z-Sat
1 49399U 21102E   25141.85254591  .00003712  00000-0  20574-3 0  9996
2 49399  97.3817 183.9378 0018782 163.9503 196.2328 15.14245295194141
KOSEN 1
1 49402U 21102H   25141.84493910  .00005614  00000-0  26256-3 0  9996
2 49402  97.3721 187.2052 0017314 140.4736 219.7765 15.20026787194443
HO-113
1 50466U 21131B   25141.87160258  .00000481  00000-0  16404-3 0  9990
2 50466  98.5093 231.3171 0004291 175.5286 184.5942 14.40790762178756
IRIS-A
1 51044U 22002BN  25141.73589739  .00443856  83317-4  10252-2 0  9992
2 51044  97.3177 221.7681 0007952 229.3152 130.7434 15.97152134186896
Foresail-1
1 52766U 22057AL  25141.37244382  .00230515  00000-0  88075-3 0  9995
2 52766  97.6029 291.1290 0004867 267.1380  92.9334 15.86890735166844
SNUGLITE 2
1 52899U 22065F   25141.34243284  .00001102  00000-0  22345-3 0  9994
2 52899  98.1662 283.5067 0008021 164.7135 195.4310 14.63165694153676
UmKA 1 (RS40S)
1 57172U 23091G   25141.85222547  .00004520  00000-0  24400-3 0  9999
2 57172  97.5593 197.3334 0015391  45.0585 315.1892 15.15144394104649
CubeBel-2 (EU11S)
1 57175U 23091K   25141.86395929  .00008206  00000-0  39516-3 0  9997
2 57175  97.5592 198.3799 0013328  54.3145 305.9328 15.18940734104714
VERONIKA
1 58261U 23174F   25141.82083019  .00100536  00000-0  99623-3 0  9990
2 58261  97.4124 226.9421 0005443 143.1106 217.0529 15.65479999 85743
ENSO
1 58470U 23185J   25141.84482914  .00044394  00000-0  68833-3 0  9991
2 58470  97.3742 216.3914 0009008 148.7797 211.3993 15.53840903 82123
EIRSAT-1
1 58472U 23185L   25141.85318728  .00081201  00000-0  86315-3 0  9998
2 58472  97.3704 218.0020 0007384 156.2049 203.9553 15.63748734 82230
SONATE-2
1 59112U 24043Q   25140.87847217  .00015554  00000-0  45748-3 0  9998
2 59112  97.5108 271.6747 0011702 179.1416 180.9849 15.35114359 67317
MO-122
1 60209U 24125G   25141.54866949  .00016784  00000-0  48661-3 0  9999
2 60209  97.2823 353.3880 0018558 200.7577 159.2915 15.35438553 49035
GRBBeta
1 60237U 24128C   25141.50313828  .00003507  00000-0  27182-3 0  9996
2 60237  61.9900 146.0630 0050505  53.0667 307.5034 15.02446147 47330
Curium One
1 60242U 24128H   25141.03861868  .00006490  00000-0  45964-3 0  9994
2 60242  61.9800 146.2530 0050456  48.7380 311.8042 15.04781451 47298
ROBUSTA-3A
1 60243U 24128J   25141.50059204  .00004931  00000-0  35759-3 0  9999
2 60243  61.9869 145.4012 0049098  46.5665 313.9496 15.04347834 47358
CatSat
1 60246U 24125J   25141.53083536  .00009896  00000-0  33402-3 0  9995
2 60246  97.2613 352.7977 0043687 160.0811 200.2148 15.29947964 47074
HYPERVIEW-1G (RS66S)
1 61772U 24199AP  25141.90300638  .00016835  00000-0  50069-3 0  9996
2 61772  97.3567  10.8082 0011869 256.7256 103.2664 15.34741120 74099
AO-123
1 61781U 24199AY  25141.85354372  .00006000  00000-0  22103-3 0  9995
2 61781  97.3579   9.8373 0014045 263.4748  96.4893 15.28114680 74021
ZIMSAT 2
1 61783U 24199BA  25141.88452734  .00028562  00000-0  72976-3 0  9991
2 61783  97.3548  11.2693 0011789 252.6723 107.3233 15.39356813 77274
HADES-R (SO-124)
1 62690U 25009CK  25141.16618584  .00033208  00000-0  12211-2 0  9996
2 62690  97.4090 222.0680 0004741 153.6876 206.4605 15.27807212 19183
HYDRA-T
1 62692U 25009CM  25140.95818503  .00033509  00000-0  12245-2 0  9998
2 62692  97.4089 221.8871 0004558 150.5636 209.5861 15.28012170 19155
JINJUSat 1B
1 63210U 25052A   25141.70720498  .00010813  00000-0  50148-3 0  9990
2 63210  97.4442  36.0730 0005677  48.1391 312.0327 15.20219793 10383
NUSHSAT 1
1 63211U 25052B   25141.70462996  .00011897  00000-0  54850-3 0  9994
2 63211  97.4432  36.0683 0005856  52.5548 307.6219 15.20398018 10380
TEVEL2-4
1 63213U 25052D   25141.45136412  .00012233  00000-0  56856-3 0  9992
2 63213  97.4344  35.7247 0005321  67.6012 292.5786 15.20114247 10343
TEVEL2-5
1 63214U 25052E   25141.45174182  .00012150  00000-0  56498-3 0  9999
2 63214  97.4348  35.7245 0005328  67.3323 292.8475 15.20098894 10342
TEVEL2-6
1 63215U 25052F   25141.65085981  .00011826  00000-0  55056-3 0  9998
2 63215  97.4349  35.9177 0005377  67.1959 292.9844 15.20064093 10375
TEVEL2-1
1 63217U 25052H   25141.65928922  .00011617  00000-0  54412-3 0  9994
2 63217  97.4324  35.8854 0005723  76.1217 284.0654 15.19856264 10371
TEVEL2-2
1 63218U 25052J   25141.59374164  .00011517  00000-0  53954-3 0  9990
2 63218  97.4324  35.8207 0005752  76.5174 283.6702 15.19851404 10361
TEVEL2-3
1 63219U 25052K   25141.72547945  .00011246  00000-0  52698-3 0  9998
2 63219  97.4324  35.9501 0005732  75.9413 284.2459 15.19850590 10380
TEVEL2-8
1 63237U 25052AD  25141.64436102  .00011166  00000-0  54098-3 0  9998
2 63237  97.4388  35.8083 0010359  83.1302 277.1110 15.18661446 10365
TEVEL2-9
1 63238U 25052AE  25140.98708679  .00010876  00000-0  52806-3 0  9998
2 63238  97.4384  35.1591 0010442  85.0243 275.2183 15.18592430 10261
TEVEL2-7
1 63239U 25052AF  25141.44985011  .00011177  00000-0  54295-3 0  9997
2 63239  97.4387  35.6100 0010467  84.0392 276.2035 15.18568199 10337
HYDRA-W
1 63490U 25052BL  25141.68567641  .00023816  00000-0  10340-2 0  9992
2 63490  97.4336  36.0160 0014664  81.0770 279.2126 15.22219513 10388
HADES-ICM
1 63492U 25052BN  25141.49845966  .00023921  00000-0  10501-2 0  9998
2 63492  97.4346  35.8119 0014950  84.6820 275.6121 15.21837902 10354
